Tracking 28895 objects as of 27-May-2024
HD Live streaming from Space Station
objects crossing your sky now

STARLINK-5298

Track STARLINK-5298 now!
10-day predictions
STARLINK-5298 is classified as:


NORAD ID: 55281
Int'l Code: 2023-010N
Perigee: 577.1 km
Apogee: 581.3 km
Inclination: 70.0 °
Period: 96.1 minutes
Semi major axis: 6950 km
RCS: Unknown
Launch date: January 19, 2023
Source: United States (US)
Launch site: AIR FORCE WESTERN TEST RANGE (AFWTR)
Your satellite tracking list
Your tracking list is empty




NASA's NSSDC Master Catalog

Two Line Element Set (TLE):
1 55281U 23010N   24147.69356912  .00001381  00000-0  12351-3 0  9994
2 55281  70.0012 248.3491 0002991 270.6084  89.4732 14.98325888 75115
Source of the keplerian elements: AFSPC